Time,TemperatureF,DewpointF,PressureIn,WindDirection,WindDirectionDegrees,WindSpeedMPH,WindSpeedGustMPH,Humidity,HourlyPrecipIn,Conditions,Clouds,dailyrainin,SoftwareType,DateUTC
2013-05-21 12:28:00,73.0,66.2,28.31,North,-999,-999.0,-999.0,79,-99.99,,,0.00,meteohub,2013-05-21 17:28:00,
2013-05-21 12:29:00,73.0,66.2,28.31,North,-999,-999.0,-999.0,79,-99.99,,,0.00,meteohub,2013-05-21 17:29:00,
2013-05-21 12:30:00,73.0,66.2,28.31,North,-999,-999.0,-999.0,79,0.00,,,0.00,meteohub,2013-05-21 17:30:00,
2013-05-21 12:32:00,73.2,66.4,28.31,North,-999,-999.0,-999.0,79,0.00,,,0.00,meteohub,2013-05-21 17:32:00,
2013-05-21 12:38:00,73.6,66.7,28.31,North,-999,-999.0,-999.0,79,0.00,,,0.00,meteohub,2013-05-21 17:38:00,
2013-05-21 12:40:00,73.6,66.4,28.30,North,-999,-999.0,-999.0,78,0.00,,,0.00,meteohub,2013-05-21 17:40:00,
2013-05-21 12:45:00,73.9,65.8,28.30,North,-999,-999.0,-999.0,76,0.00,,,0.00,meteohub,2013-05-21 17:45:00,
2013-05-21 12:50:00,74.1,65.7,28.30,North,-999,-999.0,-999.0,75,0.00,,,0.00,meteohub,2013-05-21 17:50:00,
2013-05-21 12:55:00,74.3,65.5,28.30,North,-999,-999.0,-999.0,74,0.00,,,0.00,meteohub,2013-05-21 17:55:00,
2013-05-21 13:00:00,74.3,65.1,28.29,North,-999,-999.0,-999.0,73,0.00,,,0.00,meteohub,2013-05-21 18:00:00,
2013-05-21 13:05:00,74.5,65.3,28.29,North,-999,-999.0,-999.0,73,0.00,,,0.00,meteohub,2013-05-21 18:05:00,
2013-05-21 13:10:00,74.7,65.5,28.29,North,-999,-999.0,-999.0,73,0.00,,,0.00,meteohub,2013-05-21 18:10:00,
2013-05-21 13:16:00,74.8,65.7,28.29,North,-999,-999.0,-999.0,73,0.00,,,0.00,meteohub,2013-05-21 18:16:00,
2013-05-21 13:21:00,75.2,66.0,28.29,North,-999,-999.0,-999.0,73,0.00,,,0.00,meteohub,2013-05-21 18:21:00,
2013-05-21 13:26:00,75.4,66.2,28.28,North,-999,-999.0,-999.0,73,0.00,,,0.00,meteohub,2013-05-21 18:26:00,
2013-05-21 13:31:00,75.9,66.6,28.28,North,-999,-999.0,-999.0,73,0.00,,,0.00,meteohub,2013-05-21 18:31:00,
2013-05-21 13:36:00,76.6,66.9,28.28,North,-999,-999.0,-999.0,72,0.00,,,0.00,meteohub,2013-05-21 18:36:00,
2013-05-21 13:41:00,77.0,66.9,28.28,North,-999,-999.0,-999.0,71,0.00,,,0.00,meteohub,2013-05-21 18:41:00,
2013-05-21 13:46:00,77.4,66.4,28.28,North,-999,-999.0,-999.0,69,0.00,,,0.00,meteohub,2013-05-21 18:46:00,
2013-05-21 13:52:00,77.9,66.9,28.28,North,-999,-999.0,-999.0,69,0.00,,,0.00,meteohub,2013-05-21 18:52:00,
2013-05-21 13:57:00,78.1,67.1,28.28,North,-999,-999.0,-999.0,69,0.00,,,0.00,meteohub,2013-05-21 18:57:00,
2013-05-21 14:02:00,78.4,67.5,28.27,North,-999,-999.0,-999.0,69,0.00,,,0.00,meteohub,2013-05-21 19:02:00,
2013-05-21 14:07:00,79.2,68.2,28.27,North,-999,-999.0,-999.0,69,0.00,,,0.00,meteohub,2013-05-21 19:07:00,
2013-05-21 14:12:00,79.5,68.0,28.28,North,-999,-999.0,-999.0,68,0.00,,,0.00,meteohub,2013-05-21 19:12:00,
2013-05-21 14:17:00,79.9,68.0,28.28,North,-999,-999.0,-999.0,67,0.00,,,0.00,meteohub,2013-05-21 19:17:00,
2013-05-21 14:22:00,80.1,68.2,28.27,North,-999,-999.0,-999.0,67,0.00,,,0.00,meteohub,2013-05-21 19:22:00,
2013-05-21 14:27:00,80.1,67.6,28.27,North,-999,-999.0,-999.0,66,0.00,,,0.00,meteohub,2013-05-21 19:27:00,
2013-05-21 14:32:00,80.1,67.6,28.28,North,-999,-999.0,-999.0,66,0.00,,,0.00,meteohub,2013-05-21 19:32:00,
2013-05-21 14:37:00,80.1,67.6,28.28,North,-999,-999.0,-999.0,66,0.00,,,0.00,meteohub,2013-05-21 19:37:00,
2013-05-21 14:42:00,80.2,67.8,28.28,North,-999,-999.0,-999.0,66,0.00,,,0.00,meteohub,2013-05-21 19:42:00,
2013-05-21 14:47:00,80.2,67.5,28.28,North,-999,-999.0,-999.0,65,0.00,,,0.00,meteohub,2013-05-21 19:47:00,
2013-05-21 14:52:00,80.4,67.1,28.28,North,-999,-999.0,-999.0,64,0.00,,,0.00,meteohub,2013-05-21 19:52:00,
2013-05-21 14:57:00,80.4,67.6,28.28,North,-999,-999.0,-999.0,65,0.00,,,0.00,meteohub,2013-05-21 19:57:00,
2013-05-21 15:02:00,80.4,67.1,28.29,North,-999,-999.0,-999.0,64,0.00,,,0.00,meteohub,2013-05-21 20:02:00,
2013-05-21 15:07:00,80.6,67.3,28.29,North,-999,-999.0,-999.0,64,0.00,,,0.00,meteohub,2013-05-21 20:07:00,
2013-05-21 15:12:00,80.8,66.9,28.29,North,-999,-999.0,-999.0,63,0.00,,,0.00,meteohub,2013-05-21 20:12:00,
2013-05-21 15:17:00,81.0,67.1,28.28,North,-999,-999.0,-999.0,63,0.00,,,0.00,meteohub,2013-05-21 20:17:00,
2013-05-21 15:22:00,81.0,67.1,28.29,North,-999,-999.0,-999.0,63,0.00,,,0.00,meteohub,2013-05-21 20:22:00,
2013-05-21 15:27:00,81.0,66.7,28.29,North,-999,-999.0,-999.0,62,0.00,,,0.00,meteohub,2013-05-21 20:27:00,
2013-05-21 15:32:00,81.0,66.7,28.28,North,-999,-999.0,-999.0,62,0.00,,,0.00,meteohub,2013-05-21 20:32:00,
2013-05-21 15:37:00,81.0,66.7,28.28,North,-999,-999.0,-999.0,62,0.00,,,0.00,meteohub,2013-05-21 20:37:00,
2013-05-21 15:42:00,81.0,66.7,28.27,North,-999,-999.0,-999.0,62,0.00,,,0.00,meteohub,2013-05-21 20:42:00,
2013-05-21 15:47:00,81.0,66.7,28.26,North,-999,-999.0,-999.0,62,0.00,,,0.00,meteohub,2013-05-21 20:47:00,
2013-05-21 15:52:00,81.0,66.7,28.26,North,-999,-999.0,-999.0,62,0.00,,,0.00,meteohub,2013-05-21 20:52:00,
2013-05-21 15:57:00,81.0,66.7,28.26,North,-999,-999.0,-999.0,62,0.00,,,0.00,meteohub,2013-05-21 20:57:00,
2013-05-21 16:02:00,81.0,66.7,28.26,North,-999,-999.0,-999.0,62,0.00,,,0.00,meteohub,2013-05-21 21:02:00,
2013-05-21 16:07:00,81.0,66.2,28.25,North,-999,-999.0,-999.0,61,0.00,,,0.00,meteohub,2013-05-21 21:07:00,
2013-05-21 16:12:00,81.0,66.2,28.25,North,-999,-999.0,-999.0,61,0.00,,,0.00,meteohub,2013-05-21 21:12:00,
2013-05-21 16:17:00,81.0,66.2,28.26,North,-999,-999.0,-999.0,61,0.00,,,0.00,meteohub,2013-05-21 21:17:00,
2013-05-21 16:22:00,80.8,66.0,28.26,North,-999,-999.0,-999.0,61,0.00,,,0.00,meteohub,2013-05-21 21:22:00,
2013-05-21 16:27:00,80.8,66.0,28.26,North,-999,-999.0,-999.0,61,0.00,,,0.00,meteohub,2013-05-21 21:27:00,
2013-05-21 16:32:00,80.2,65.1,28.27,North,-999,-999.0,-999.0,60,0.00,,,0.00,meteohub,2013-05-21 21:32:00,
2013-05-21 16:37:00,80.2,65.1,28.26,North,-999,-999.0,-999.0,60,0.00,,,0.00,meteohub,2013-05-21 21:37:00,
2013-05-21 16:42:00,79.9,65.3,28.26,North,-999,-999.0,-999.0,61,0.00,,,0.00,meteohub,2013-05-21 21:42:00,
2013-05-21 16:47:00,79.5,64.9,28.26,North,-999,-999.0,-999.0,61,0.00,,,0.00,meteohub,2013-05-21 21:47:00,
2013-05-21 16:52:00,79.2,64.6,28.25,North,-999,-999.0,-999.0,61,0.00,,,0.00,meteohub,2013-05-21 21:52:00,
2013-05-21 16:57:00,79.0,64.4,28.25,North,-999,-999.0,-999.0,61,0.00,,,0.00,meteohub,2013-05-21 21:57:00,
2013-05-21 17:02:00,78.8,64.2,28.24,North,-999,-999.0,-999.0,61,0.00,,,0.00,meteohub,2013-05-21 22:02:00,
2013-05-21 17:07:00,78.4,64.4,28.24,North,-999,-999.0,-999.0,62,0.00,,,0.00,meteohub,2013-05-21 22:07:00,
2013-05-21 17:12:00,78.3,64.6,28.24,North,-999,-999.0,-999.0,63,0.00,,,0.00,meteohub,2013-05-21 22:12:00,
2013-05-21 17:17:00,78.1,64.4,28.24,North,-999,-999.0,-999.0,63,0.00,,,0.00,meteohub,2013-05-21 22:17:00,
2013-05-21 17:22:00,77.9,64.2,28.23,North,-999,-999.0,-999.0,63,0.00,,,0.00,meteohub,2013-05-21 22:22:00,
2013-05-21 17:27:00,77.7,64.0,28.22,North,-999,-999.0,-999.0,63,0.00,,,0.00,meteohub,2013-05-21 22:27:00,
2013-05-21 17:32:00,77.5,63.9,28.22,North,-999,-999.0,-999.0,63,0.00,,,0.00,meteohub,2013-05-21 22:32:00,
2013-05-21 17:37:00,77.5,63.9,28.22,North,-999,-999.0,-999.0,63,0.00,,,0.00,meteohub,2013-05-21 22:37:00,
2013-05-21 17:42:00,77.5,63.9,28.22,North,-999,-999.0,-999.0,63,0.00,,,0.00,meteohub,2013-05-21 22:42:00,
2013-05-21 17:48:00,77.0,64.8,28.23,North,-999,-999.0,-999.0,66,0.00,,,0.00,meteohub,2013-05-21 22:48:00,
2013-05-21 17:53:00,77.0,64.8,28.24,North,-999,-999.0,-999.0,66,0.00,,,0.00,meteohub,2013-05-21 22:53:00,
2013-05-21 17:59:00,76.6,64.4,28.24,North,-999,-999.0,-999.0,66,0.00,,,0.00,meteohub,2013-05-21 22:59:00,
2013-05-21 18:04:00,76.3,64.0,28.24,North,-999,-999.0,-999.0,66,0.00,,,0.00,meteohub,2013-05-21 23:04:00,
2013-05-21 18:09:00,76.3,64.6,28.25,North,-999,-999.0,-999.0,67,0.00,,,0.00,meteohub,2013-05-21 23:09:00,
2013-05-21 18:14:00,75.9,64.2,28.25,North,-999,-999.0,-999.0,67,0.00,,,0.00,meteohub,2013-05-21 23:14:00,
2013-05-21 18:19:00,75.6,64.2,28.25,North,-999,-999.0,-999.0,68,0.00,,,0.00,meteohub,2013-05-21 23:19:00,
2013-05-21 18:24:00,75.4,64.0,28.24,North,-999,-999.0,-999.0,68,0.00,,,0.00,meteohub,2013-05-21 23:24:00,
2013-05-21 18:29:00,75.4,64.0,28.24,North,-999,-999.0,-999.0,68,0.00,,,0.00,meteohub,2013-05-21 23:29:00,
2013-05-21 18:34:00,75.0,64.2,28.23,North,-999,-999.0,-999.0,69,0.00,,,0.00,meteohub,2013-05-21 23:34:00,
2013-05-21 18:40:00,74.8,64.0,28.23,North,-999,-999.0,-999.0,69,0.00,,,0.00,meteohub,2013-05-21 23:40:00,
2013-05-21 18:45:00,74.8,64.0,28.23,North,-999,-999.0,-999.0,69,0.00,,,0.00,meteohub,2013-05-21 23:45:00,
2013-05-21 18:50:00,74.8,64.0,28.22,North,-999,-999.0,-999.0,69,0.00,,,0.00,meteohub,2013-05-21 23:50:00,
2013-05-21 18:55:00,74.3,64.2,28.23,North,-999,-999.0,-999.0,71,0.00,,,0.00,meteohub,2013-05-21 23:55:00,
2013-05-21 19:00:00,74.3,64.2,28.23,North,-999,-999.0,-999.0,71,0.00,,,0.00,meteohub,2013-05-22 00:00:00,
2013-05-21 19:06:00,73.9,63.5,28.22,North,-999,-999.0,-999.0,70,0.00,,,0.00,meteohub,2013-05-22 00:06:00,
2013-05-21 19:11:00,73.9,63.5,28.23,North,-999,-999.0,-999.0,70,0.00,,,0.00,meteohub,2013-05-22 00:11:00,
2013-05-21 19:22:00,73.0,63.1,28.24,North,-999,-999.0,-999.0,71,0.00,,,0.00,meteohub,2013-05-22 00:22:00,
2013-05-21 19:27:00,73.0,63.5,28.24,North,-999,-999.0,-999.0,72,0.00,,,0.00,meteohub,2013-05-22 00:27:00,
2013-05-21 19:37:00,72.3,63.1,28.22,North,-999,-999.0,-999.0,73,0.00,,,0.00,meteohub,2013-05-22 00:37:00,
2013-05-21 19:42:00,72.1,63.0,28.22,North,-999,-999.0,-999.0,73,0.00,,,0.00,meteohub,2013-05-22 00:42:00,
2013-05-21 19:47:00,71.8,63.0,28.23,North,-999,-999.0,-999.0,74,0.00,,,0.00,meteohub,2013-05-22 00:47:00,
2013-05-21 19:52:00,71.4,62.8,28.23,North,-999,-999.0,-999.0,74,0.00,,,0.00,meteohub,2013-05-22 00:52:00,
2013-05-21 19:57:00,71.2,62.6,28.23,North,-999,-999.0,-999.0,74,0.00,,,0.00,meteohub,2013-05-22 00:57:00,
2013-05-21 20:03:00,71.2,62.6,28.23,North,-999,-999.0,-999.0,74,0.00,,,0.00,meteohub,2013-05-22 01:03:00,
2013-05-21 20:08:00,70.7,62.4,28.23,North,-999,-999.0,-999.0,75,0.00,,,0.00,meteohub,2013-05-22 01:08:00,
2013-05-21 20:14:00,70.3,62.1,28.24,North,-999,-999.0,-999.0,75,0.00,,,0.00,meteohub,2013-05-22 01:14:00,
2013-05-21 20:19:00,70.0,62.1,28.24,North,-999,-999.0,-999.0,76,0.00,,,0.00,meteohub,2013-05-22 01:19:00,
2013-05-21 20:24:00,70.0,62.1,28.25,North,-999,-999.0,-999.0,76,0.00,,,0.00,meteohub,2013-05-22 01:24:00,
2013-05-21 20:30:00,69.6,62.1,28.24,North,-999,-999.0,-999.0,77,0.00,,,0.00,meteohub,2013-05-22 01:30:00,
2013-05-21 20:35:00,69.6,62.1,28.24,North,-999,-999.0,-999.0,77,0.00,,,0.00,meteohub,2013-05-22 01:35:00,
2013-05-21 20:40:00,69.6,62.1,28.24,North,-999,-999.0,-999.0,77,0.00,,,0.00,meteohub,2013-05-22 01:40:00,
2013-05-21 20:45:00,68.7,61.5,28.23,North,-999,-999.0,-999.0,78,0.00,,,0.00,meteohub,2013-05-22 01:45:00,
2013-05-21 20:51:00,68.4,61.5,28.24,North,-999,-999.0,-999.0,79,0.00,,,0.00,meteohub,2013-05-22 01:51:00,
2013-05-21 20:56:00,68.0,61.2,28.24,North,-999,-999.0,-999.0,79,0.00,,,0.00,meteohub,2013-05-22 01:56:00,
2013-05-21 21:01:00,68.0,61.5,28.25,North,-999,-999.0,-999.0,80,0.00,,,0.00,meteohub,2013-05-22 02:01:00,
2013-05-21 21:06:00,67.5,61.2,28.24,North,-999,-999.0,-999.0,80,0.00,,,0.00,meteohub,2013-05-22 02:06:00,
2013-05-21 21:11:00,67.3,61.2,28.25,North,-999,-999.0,-999.0,81,0.00,,,0.00,meteohub,2013-05-22 02:11:00,
2013-05-21 21:16:00,67.3,61.2,28.25,North,-999,-999.0,-999.0,81,0.00,,,0.00,meteohub,2013-05-22 02:16:00,
2013-05-21 21:21:00,67.3,61.2,28.25,North,-999,-999.0,-999.0,81,0.00,,,0.00,meteohub,2013-05-22 02:21:00,
2013-05-21 22:15:00,64.4,59.7,28.27,North,-999,-999.0,-999.0,85,0.00,,,0.00,meteohub,2013-05-22 03:15:00,
2013-05-21 22:20:00,64.4,59.7,28.27,North,-999,-999.0,-999.0,85,0.00,,,0.00,meteohub,2013-05-22 03:20:00,
2013-05-21 22:25:00,64.4,59.7,28.27,North,-999,-999.0,-999.0,85,0.00,,,0.00,meteohub,2013-05-22 03:25:00,
2013-05-21 22:30:00,63.9,59.9,28.29,North,-999,-999.0,-999.0,87,0.00,,,0.00,meteohub,2013-05-22 03:30:00,
2013-05-21 22:35:00,63.9,59.9,28.29,North,-999,-999.0,-999.0,87,0.00,,,0.00,meteohub,2013-05-22 03:35:00,
2013-05-21 22:40:00,63.9,59.9,28.29,North,-999,-999.0,-999.0,87,0.00,,,0.00,meteohub,2013-05-22 03:40:00,